Year,Month,Day,Hour,Minute,Value (Times are PST for temperature in C)
2018,06,20,00,00,15.10
2018,06,20,00,01,15.10
2018,06,20,00,02,15.10
2018,06,20,00,03,15.10
2018,06,20,00,04,15.10
2018,06,20,00,05,15.10
2018,06,20,00,06,15.10
2018,06,20,00,07,15.10
2018,06,20,00,08,15.10
2018,06,20,00,09,15.10
2018,06,20,00,10,15.10
2018,06,20,00,11,15.10
2018,06,20,00,12,15.10
2018,06,20,00,13,15.10
2018,06,20,00,14,15.10
2018,06,20,00,15,15.10
2018,06,20,00,16,15.20
2018,06,20,00,17,15.20
2018,06,20,00,18,15.20
2018,06,20,00,19,15.20
2018,06,20,00,20,15.20
2018,06,20,00,21,15.20
2018,06,20,00,22,15.20
2018,06,20,00,23,15.20
2018,06,20,00,24,15.20
2018,06,20,00,25,15.20
2018,06,20,00,26,15.20
2018,06,20,00,27,15.20
2018,06,20,00,28,15.20
2018,06,20,00,29,15.20
2018,06,20,00,30,15.20
2018,06,20,00,31,15.10
2018,06,20,00,32,15.10
2018,06,20,00,33,15.20
2018,06,20,00,34,15.20
2018,06,20,00,35,15.20
2018,06,20,00,36,15.20
2018,06,20,00,37,15.20
2018,06,20,00,38,15.20
2018,06,20,00,39,15.20
2018,06,20,00,40,15.20
2018,06,20,00,41,15.20
2018,06,20,00,42,15.20
2018,06,20,00,43,15.30
2018,06,20,00,44,15.30
2018,06,20,00,45,15.30
2018,06,20,00,46,15.30
2018,06,20,00,47,15.30
2018,06,20,00,48,15.30
2018,06,20,00,49,15.30
2018,06,20,00,50,15.30
2018,06,20,00,51,15.30
2018,06,20,00,52,15.30
2018,06,20,00,53,15.30
2018,06,20,00,54,15.30
2018,06,20,00,55,15.30
2018,06,20,00,56,15.30
2018,06,20,00,57,15.20
2018,06,20,00,58,15.20
2018,06,20,00,59,15.10
2018,06,20,01,00,15.10
2018,06,20,01,01,15.10
2018,06,20,01,02,15.00
2018,06,20,01,03,14.90
2018,06,20,01,04,14.90
2018,06,20,01,05,14.90
2018,06,20,01,06,14.90
2018,06,20,01,07,14.90
2018,06,20,01,08,14.90
2018,06,20,01,09,14.80
2018,06,20,01,10,14.80
2018,06,20,01,11,14.80
2018,06,20,01,12,14.80
2018,06,20,01,13,14.80
2018,06,20,01,14,14.80
2018,06,20,01,15,14.80
2018,06,20,01,16,14.80
2018,06,20,01,17,14.80
2018,06,20,01,18,14.80
2018,06,20,01,19,14.80
2018,06,20,01,20,14.80
2018,06,20,01,21,14.80
2018,06,20,01,22,14.80
2018,06,20,01,23,14.80
2018,06,20,01,24,14.80
2018,06,20,01,25,14.80
2018,06,20,01,26,14.80
2018,06,20,01,27,14.80
2018,06,20,01,28,14.80
2018,06,20,01,29,14.80
2018,06,20,01,30,14.80
2018,06,20,01,31,14.80
2018,06,20,01,32,14.80
2018,06,20,01,33,14.80
2018,06,20,01,34,14.80
2018,06,20,01,35,14.90
2018,06,20,01,36,14.90
2018,06,20,01,37,14.90
2018,06,20,01,38,14.90
2018,06,20,01,39,14.90
2018,06,20,01,40,14.90
2018,06,20,01,41,14.90
2018,06,20,01,42,14.90
2018,06,20,01,43,14.90
2018,06,20,01,44,14.90
2018,06,20,01,45,14.90
2018,06,20,01,46,14.90
2018,06,20,01,47,14.90
2018,06,20,01,48,14.90
2018,06,20,01,49,14.90
2018,06,20,01,50,14.90
2018,06,20,01,51,14.90
2018,06,20,01,52,14.90
2018,06,20,01,53,14.90
2018,06,20,01,54,14.90
2018,06,20,01,55,14.80
2018,06,20,01,56,14.90
2018,06,20,01,57,14.90
2018,06,20,01,58,14.80
2018,06,20,01,59,14.80
2018,06,20,02,00,14.80
2018,06,20,02,01,14.80
2018,06,20,02,02,14.80
2018,06,20,02,03,14.80
2018,06,20,02,04,14.80
2018,06,20,02,05,14.80
2018,06,20,02,06,14.80
2018,06,20,02,07,14.80
2018,06,20,02,08,14.80
2018,06,20,02,09,14.80
2018,06,20,02,10,14.80
2018,06,20,02,11,14.80
2018,06,20,02,12,14.80
2018,06,20,02,13,14.80
2018,06,20,02,14,14.80
2018,06,20,02,15,14.80
2018,06,20,02,16,14.80
2018,06,20,02,17,14.80
2018,06,20,02,18,14.80
2018,06,20,02,19,14.80
2018,06,20,02,20,14.80
2018,06,20,02,21,14.70
2018,06,20,02,22,14.70
2018,06,20,02,23,14.70
2018,06,20,02,24,14.70
2018,06,20,02,25,14.70
2018,06,20,02,26,14.70
2018,06,20,02,27,14.70
2018,06,20,02,28,14.70
2018,06,20,02,29,14.70
2018,06,20,02,30,14.70
2018,06,20,02,31,14.70
2018,06,20,02,32,14.70
2018,06,20,02,33,14.70
2018,06,20,02,34,14.70
2018,06,20,02,35,14.70
2018,06,20,02,36,14.70
2018,06,20,02,37,14.70
2018,06,20,02,38,14.70
2018,06,20,02,39,14.80
2018,06,20,02,40,14.80
2018,06,20,02,41,14.80
2018,06,20,02,42,14.80
2018,06,20,02,43,14.80
2018,06,20,02,44,14.80
2018,06,20,02,45,14.80
2018,06,20,02,46,14.80
2018,06,20,02,47,14.90
2018,06,20,02,48,14.90
2018,06,20,02,49,14.90
2018,06,20,02,50,14.90
2018,06,20,02,51,15.00
2018,06,20,02,52,15.00
2018,06,20,02,53,15.00
2018,06,20,02,54,15.10
2018,06,20,02,55,15.10
2018,06,20,02,56,15.10
2018,06,20,02,57,15.10
2018,06,20,02,58,15.10
2018,06,20,02,59,15.10
2018,06,20,03,00,15.10
2018,06,20,03,01,15.10
2018,06,20,03,02,15.10
2018,06,20,03,03,15.10
2018,06,20,03,04,15.20
2018,06,20,03,05,15.10
2018,06,20,03,06,15.20
2018,06,20,03,07,15.10
2018,06,20,03,08,15.10
2018,06,20,03,09,15.10
2018,06,20,03,10,15.10
2018,06,20,03,11,15.00
2018,06,20,03,12,15.00
2018,06,20,03,13,14.90
2018,06,20,03,14,14.90
2018,06,20,03,15,14.90
2018,06,20,03,16,14.90
2018,06,20,03,17,14.90
2018,06,20,03,18,14.90
2018,06,20,03,19,14.80
2018,06,20,03,20,14.80
2018,06,20,03,21,14.80
2018,06,20,03,22,14.80
2018,06,20,03,23,14.80
2018,06,20,03,24,14.80
2018,06,20,03,25,14.80
2018,06,20,03,26,14.80
2018,06,20,03,27,14.80
2018,06,20,03,28,14.80
2018,06,20,03,29,14.80
2018,06,20,03,30,14.80
2018,06,20,03,31,14.80
2018,06,20,03,32,14.80
2018,06,20,03,33,14.70
2018,06,20,03,34,14.70
2018,06,20,03,35,14.70
2018,06,20,03,36,14.70
2018,06,20,03,37,14.70
2018,06,20,03,38,14.60
2018,06,20,03,39,14.60
2018,06,20,03,40,14.60
2018,06,20,03,41,14.60
2018,06,20,03,42,14.50
2018,06,20,03,43,14.50
2018,06,20,03,44,14.50
2018,06,20,03,45,14.40
2018,06,20,03,46,14.40
2018,06,20,03,47,14.40
2018,06,20,03,48,14.30
2018,06,20,03,49,14.30
2018,06,20,03,50,14.30
2018,06,20,03,51,14.30
2018,06,20,03,52,14.30
2018,06,20,03,53,14.30
2018,06,20,03,54,14.20
2018,06,20,03,55,14.20
2018,06,20,03,56,14.20
2018,06,20,03,57,14.20
2018,06,20,03,58,14.20
2018,06,20,03,59,14.20
2018,06,20,04,00,14.20
2018,06,20,04,01,14.20
2018,06,20,04,02,14.20
2018,06,20,04,03,14.20
2018,06,20,04,04,14.20
2018,06,20,04,05,14.20
2018,06,20,04,06,14.10
2018,06,20,04,07,14.10
2018,06,20,04,08,14.10
2018,06,20,04,09,14.10
2018,06,20,04,10,14.10
2018,06,20,04,11,14.10
2018,06,20,04,12,14.10
2018,06,20,04,13,14.10
2018,06,20,04,14,14.00
2018,06,20,04,15,14.00
2018,06,20,04,16,14.00
2018,06,20,04,17,14.00
2018,06,20,04,18,14.00
2018,06,20,04,19,13.90
2018,06,20,04,20,13.90
2018,06,20,04,21,13.90
2018,06,20,04,22,13.90
2018,06,20,04,23,13.90
2018,06,20,04,24,13.90
2018,06,20,04,25,13.90
2018,06,20,04,26,13.90
2018,06,20,04,27,13.90
2018,06,20,04,28,13.90
2018,06,20,04,29,13.90
2018,06,20,04,30,13.90
2018,06,20,04,31,13.90
2018,06,20,04,32,13.90
2018,06,20,04,33,13.90
2018,06,20,04,34,13.80
2018,06,20,04,35,13.80
2018,06,20,04,36,13.80
2018,06,20,04,37,13.80
2018,06,20,04,38,13.80
2018,06,20,04,39,13.80
2018,06,20,04,40,13.80
2018,06,20,04,41,13.80
2018,06,20,04,42,13.80
2018,06,20,04,43,13.80
2018,06,20,04,44,13.80
2018,06,20,04,45,13.80
2018,06,20,04,46,13.70
2018,06,20,04,47,13.70
2018,06,20,04,48,13.70
2018,06,20,04,49,13.70
2018,06,20,04,50,13.70
2018,06,20,04,51,13.70
2018,06,20,04,52,13.70
2018,06,20,04,53,13.70
2018,06,20,04,54,13.70
2018,06,20,04,55,13.70
2018,06,20,04,56,13.70
2018,06,20,04,57,13.70
2018,06,20,04,58,13.70
2018,06,20,04,59,13.60
2018,06,20,05,00,13.60
2018,06,20,05,01,13.60
2018,06,20,05,02,13.60
2018,06,20,05,03,13.60
2018,06,20,05,04,13.60
2018,06,20,05,05,13.60
2018,06,20,05,06,13.60
2018,06,20,05,07,13.60
2018,06,20,05,08,13.60
2018,06,20,05,09,13.50
2018,06,20,05,10,13.50
2018,06,20,05,11,13.50
2018,06,20,05,12,13.50
2018,06,20,05,13,13.50
2018,06,20,05,14,13.40
2018,06,20,05,15,13.40
2018,06,20,05,16,13.40
2018,06,20,05,17,13.40
2018,06,20,05,18,13.40
2018,06,20,05,19,13.40
2018,06,20,05,20,13.30
2018,06,20,05,21,13.30
2018,06,20,05,22,13.30
2018,06,20,05,23,13.30
2018,06,20,05,24,13.20
2018,06,20,05,25,13.20
2018,06,20,05,26,13.20
2018,06,20,05,27,13.20
2018,06,20,05,28,13.20
2018,06,20,05,29,13.10
2018,06,20,05,30,13.10
2018,06,20,05,31,13.10
2018,06,20,05,32,13.10
2018,06,20,05,33,13.10
2018,06,20,05,34,13.10
2018,06,20,05,35,13.10
2018,06,20,05,36,13.10
2018,06,20,05,37,13.10
2018,06,20,05,38,13.10
2018,06,20,05,39,13.20
2018,06,20,05,40,13.20
2018,06,20,05,41,13.20
2018,06,20,05,42,13.20
2018,06,20,05,43,13.20
2018,06,20,05,44,13.20
2018,06,20,05,45,13.20
2018,06,20,05,46,13.20
2018,06,20,05,47,13.20
2018,06,20,05,48,13.20
2018,06,20,05,49,13.20
2018,06,20,05,50,13.20
2018,06,20,05,51,13.20
2018,06,20,05,52,13.30
2018,06,20,05,53,13.30
2018,06,20,05,54,13.30
2018,06,20,05,55,13.30
2018,06,20,05,56,13.30
2018,06,20,05,57,13.30
2018,06,20,05,58,13.30
2018,06,20,05,59,13.30
2018,06,20,06,00,13.30
2018,06,20,06,01,13.40
2018,06,20,06,02,13.40
2018,06,20,06,03,13.40
2018,06,20,06,04,13.40
2018,06,20,06,05,13.50
2018,06,20,06,06,13.50
2018,06,20,06,07,13.50
2018,06,20,06,08,13.60
2018,06,20,06,09,13.60
2018,06,20,06,10,13.60
2018,06,20,06,11,13.60
2018,06,20,06,12,13.60
2018,06,20,06,13,13.70
2018,06,20,06,14,13.70
2018,06,20,06,15,13.70
2018,06,20,06,16,13.70
2018,06,20,06,17,13.80
2018,06,20,06,18,13.80
2018,06,20,06,19,13.90
2018,06,20,06,20,13.90
2018,06,20,06,21,14.00
2018,06,20,06,22,14.00
2018,06,20,06,23,14.10
2018,06,20,06,24,14.10
2018,06,20,06,25,14.10
2018,06,20,06,26,14.20
2018,06,20,06,27,14.20
2018,06,20,06,28,14.20
2018,06,20,06,29,14.30
2018,06,20,06,30,14.30
2018,06,20,06,31,14.30
2018,06,20,06,32,14.40
2018,06,20,06,33,14.40
2018,06,20,06,34,14.50
2018,06,20,06,35,14.50
2018,06,20,06,36,14.50
2018,06,20,06,37,14.60
2018,06,20,06,38,14.60
2018,06,20,06,39,14.60
2018,06,20,06,40,14.70
2018,06,20,06,41,14.70
2018,06,20,06,42,14.70
2018,06,20,06,43,14.70
2018,06,20,06,44,14.80
2018,06,20,06,45,14.80
2018,06,20,06,46,14.80
2018,06,20,06,47,14.80
2018,06,20,06,48,14.80
2018,06,20,06,49,14.80
2018,06,20,06,50,14.80
2018,06,20,06,51,14.80
2018,06,20,06,52,14.80
2018,06,20,06,53,14.80
2018,06,20,06,54,14.90
2018,06,20,06,55,14.90
2018,06,20,06,56,14.90
2018,06,20,06,57,15.00
2018,06,20,06,58,15.00
2018,06,20,06,59,15.00
2018,06,20,07,00,15.10
2018,06,20,07,01,15.10
2018,06,20,07,02,15.10
2018,06,20,07,03,15.20
2018,06,20,07,04,15.20
2018,06,20,07,05,15.20
2018,06,20,07,06,15.20
2018,06,20,07,07,15.30
2018,06,20,07,08,15.30
2018,06,20,07,09,15.30
2018,06,20,07,10,15.40
2018,06,20,07,11,15.40
2018,06,20,07,12,15.50
2018,06,20,07,13,15.60
2018,06,20,07,14,15.60
2018,06,20,07,15,15.70
2018,06,20,07,16,15.70
2018,06,20,07,17,15.70
2018,06,20,07,18,15.80
2018,06,20,07,19,15.80
2018,06,20,07,20,15.90
2018,06,20,07,21,15.90
2018,06,20,07,22,15.90
2018,06,20,07,23,15.90
2018,06,20,07,24,15.90
2018,06,20,07,25,15.90
2018,06,20,07,26,15.90
2018,06,20,07,27,16.00
2018,06,20,07,28,16.00
2018,06,20,07,29,16.00
2018,06,20,07,30,16.10
2018,06,20,07,31,16.10
2018,06,20,07,32,16.10
2018,06,20,07,33,16.10
2018,06,20,07,34,16.20
2018,06,20,07,35,16.20
2018,06,20,07,36,16.20
2018,06,20,07,37,16.30
2018,06,20,07,38,16.30
2018,06,20,07,39,16.30
2018,06,20,07,40,16.30
2018,06,20,07,41,16.30
2018,06,20,07,42,16.30
2018,06,20,07,43,16.30
2018,06,20,07,44,16.30
2018,06,20,07,45,16.30
2018,06,20,07,46,16.30
2018,06,20,07,47,16.30
2018,06,20,07,48,16.30
2018,06,20,07,49,16.30
2018,06,20,07,50,16.40
2018,06,20,07,51,16.40
2018,06,20,07,52,16.50
2018,06,20,07,53,16.50
2018,06,20,07,54,16.60
2018,06,20,07,55,16.60
2018,06,20,07,56,16.70
2018,06,20,07,57,16.70
2018,06,20,07,58,16.80
2018,06,20,07,59,16.80
2018,06,20,08,00,16.90
2018,06,20,08,01,16.90
2018,06,20,08,02,16.90
2018,06,20,08,03,17.00
2018,06,20,08,04,17.00
2018,06,20,08,05,17.10
2018,06,20,08,06,17.10
2018,06,20,08,07,17.10
2018,06,20,08,08,17.10
2018,06,20,08,09,17.10
2018,06,20,08,10,17.20
2018,06,20,08,11,17.20
2018,06,20,08,12,17.20
2018,06,20,08,13,17.20
2018,06,20,08,14,17.30
2018,06,20,08,15,17.30
2018,06,20,08,16,17.30
2018,06,20,08,17,17.30
2018,06,20,08,18,17.30
2018,06,20,08,19,17.30
2018,06,20,08,20,17.40
2018,06,20,08,21,17.40
2018,06,20,08,22,17.40
2018,06,20,08,23,17.40
2018,06,20,08,24,17.40
2018,06,20,08,25,17.40
2018,06,20,08,26,17.30
2018,06,20,08,27,17.30
2018,06,20,08,28,17.30
2018,06,20,08,29,17.30
2018,06,20,08,30,17.30
2018,06,20,08,31,17.20
2018,06,20,08,32,17.20
2018,06,20,08,33,17.20
2018,06,20,08,34,17.20
2018,06,20,08,35,17.20
2018,06,20,08,36,17.20
2018,06,20,08,37,17.20
2018,06,20,08,38,17.20
2018,06,20,08,39,17.20
2018,06,20,08,40,17.20
2018,06,20,08,41,17.20
2018,06,20,08,42,17.20
2018,06,20,08,43,17.20
2018,06,20,08,44,17.10
2018,06,20,08,45,17.10
2018,06,20,08,46,17.10
2018,06,20,08,47,17.10
2018,06,20,08,48,17.10
2018,06,20,08,49,17.10
2018,06,20,08,50,17.10
2018,06,20,08,51,17.10
2018,06,20,08,52,17.10
2018,06,20,08,53,17.20
2018,06,20,08,54,17.20
2018,06,20,08,55,17.30
2018,06,20,08,56,17.30
2018,06,20,08,57,17.40
2018,06,20,08,58,17.40
2018,06,20,08,59,17.50
2018,06,20,09,00,17.60
2018,06,20,09,01,17.70
2018,06,20,09,02,17.70
2018,06,20,09,03,17.80
2018,06,20,09,04,17.90
2018,06,20,09,05,18.00
2018,06,20,09,06,18.10
2018,06,20,09,07,18.20
2018,06,20,09,08,18.20
2018,06,20,09,09,18.20
2018,06,20,09,10,18.20
2018,06,20,09,11,18.20
2018,06,20,09,12,18.20
2018,06,20,09,13,18.20
2018,06,20,09,14,18.10
2018,06,20,09,15,18.20
2018,06,20,09,16,18.20
2018,06,20,09,17,18.20
2018,06,20,09,18,18.20
2018,06,20,09,19,18.20
2018,06,20,09,20,18.30
2018,06,20,09,21,18.30
2018,06,20,09,22,18.30
2018,06,20,09,23,18.40
2018,06,20,09,24,18.40
2018,06,20,09,25,18.40
2018,06,20,09,26,18.40
2018,06,20,09,27,18.40
2018,06,20,09,28,18.40
2018,06,20,09,29,18.40
2018,06,20,09,30,18.40
2018,06,20,09,31,18.40
2018,06,20,09,32,18.40
2018,06,20,09,33,18.30
2018,06,20,09,34,18.30
2018,06,20,09,35,18.30
2018,06,20,09,36,18.30
2018,06,20,09,37,18.30
2018,06,20,09,38,18.30
2018,06,20,09,39,18.30
2018,06,20,09,40,18.40
2018,06,20,09,41,18.40
2018,06,20,09,42,18.50
2018,06,20,09,43,18.50
2018,06,20,09,44,18.60
2018,06,20,09,45,18.60
2018,06,20,09,46,18.70
2018,06,20,09,47,18.80
2018,06,20,09,48,18.90
2018,06,20,09,49,18.90
2018,06,20,09,50,19.00
2018,06,20,09,51,19.00
2018,06,20,09,52,19.00
2018,06,20,09,53,18.90
2018,06,20,09,54,18.80
2018,06,20,09,55,18.70
2018,06,20,09,56,18.60
2018,06,20,09,57,18.50
2018,06,20,09,58,18.50
2018,06,20,09,59,18.40
2018,06,20,10,00,18.30
2018,06,20,10,01,18.10
2018,06,20,10,02,18.00
2018,06,20,10,03,17.80
2018,06,20,10,04,17.70
2018,06,20,10,05,17.70
2018,06,20,10,06,17.70
2018,06,20,10,07,17.70
2018,06,20,10,08,17.70
2018,06,20,10,09,17.70
2018,06,20,10,10,17.70
2018,06,20,10,11,17.70
2018,06,20,10,12,17.70
2018,06,20,10,13,17.80
2018,06,20,10,14,17.80
2018,06,20,10,15,17.90
2018,06,20,10,16,18.00
2018,06,20,10,17,18.10
2018,06,20,10,18,18.10
2018,06,20,10,19,18.20
2018,06,20,10,20,18.30
2018,06,20,10,21,18.40
2018,06,20,10,22,18.50
2018,06,20,10,23,18.60
2018,06,20,10,24,18.70
2018,06,20,10,25,18.80
2018,06,20,10,26,18.90
2018,06,20,10,27,19.10
2018,06,20,10,28,19.20
2018,06,20,10,29,19.30
2018,06,20,10,30,19.40
2018,06,20,10,31,19.50
2018,06,20,10,32,19.70
2018,06,20,10,33,19.80
2018,06,20,10,34,19.90
2018,06,20,10,35,20.00
2018,06,20,10,36,20.10
2018,06,20,10,37,20.20
2018,06,20,10,38,20.20
2018,06,20,10,39,20.20
2018,06,20,10,40,20.20
2018,06,20,10,41,20.20
2018,06,20,10,42,20.20
2018,06,20,10,43,20.20
2018,06,20,10,44,20.20
2018,06,20,10,45,20.20
2018,06,20,10,46,20.20
2018,06,20,10,47,20.20
2018,06,20,10,48,20.30
2018,06,20,10,49,20.30
2018,06,20,10,50,20.30
2018,06,20,10,51,20.40
2018,06,20,10,52,20.50
2018,06,20,10,53,20.60
2018,06,20,10,54,20.70
2018,06,20,10,55,20.80
2018,06,20,10,56,20.90
2018,06,20,10,57,21.00
2018,06,20,10,58,21.10
2018,06,20,10,59,21.10
2018,06,20,11,00,21.20
2018,06,20,11,01,21.20
2018,06,20,11,02,21.30
2018,06,20,11,03,21.30
2018,06,20,11,04,21.30
2018,06,20,11,05,21.30
2018,06,20,11,06,21.20
2018,06,20,11,07,21.20
2018,06,20,11,08,21.10
2018,06,20,11,09,20.90
2018,06,20,11,10,20.80
2018,06,20,11,11,20.70
2018,06,20,11,12,20.60
2018,06,20,11,13,20.50
2018,06,20,11,14,20.40
2018,06,20,11,15,20.40
2018,06,20,11,16,20.40
2018,06,20,11,17,20.40
2018,06,20,11,18,20.40
2018,06,20,11,19,20.40
2018,06,20,11,20,20.40
2018,06,20,11,21,20.40
2018,06,20,11,22,20.40
2018,06,20,11,23,20.40
2018,06,20,11,24,20.40
2018,06,20,11,25,20.50
2018,06,20,11,26,20.60
2018,06,20,11,27,20.60
2018,06,20,11,28,20.70
2018,06,20,11,29,20.70
2018,06,20,11,30,20.80
2018,06,20,11,31,20.80
2018,06,20,11,32,20.80
2018,06,20,11,33,20.80
2018,06,20,11,34,20.80
2018,06,20,11,35,20.80
2018,06,20,11,36,20.80
2018,06,20,11,37,20.80
2018,06,20,11,38,20.70
2018,06,20,11,39,20.70
2018,06,20,11,40,20.60
2018,06,20,11,41,20.50
2018,06,20,11,42,20.40
2018,06,20,11,43,20.40
2018,06,20,11,44,20.40
2018,06,20,11,45,20.40
2018,06,20,11,46,20.40
2018,06,20,11,47,20.40
2018,06,20,11,48,20.40
2018,06,20,11,49,20.40
2018,06,20,11,50,20.50
2018,06,20,11,51,20.50
2018,06,20,11,52,20.50
2018,06,20,11,53,20.50
2018,06,20,11,54,20.60
2018,06,20,11,55,20.60
2018,06,20,11,56,20.60
2018,06,20,11,57,20.70
2018,06,20,11,58,20.70
2018,06,20,11,59,20.80
2018,06,20,12,00,20.80
2018,06,20,12,01,20.90
2018,06,20,12,02,20.90
2018,06,20,12,03,20.90
2018,06,20,12,04,20.90
2018,06,20,12,05,20.90
2018,06,20,12,06,20.90
2018,06,20,12,07,21.00
2018,06,20,12,08,21.00
2018,06,20,12,09,21.00
2018,06,20,12,10,21.00
2018,06,20,12,11,21.00
2018,06,20,12,12,21.00
2018,06,20,12,13,21.00
2018,06,20,12,14,20.90
2018,06,20,12,15,20.80
2018,06,20,12,16,20.70
2018,06,20,12,17,20.70
2018,06,20,12,18,20.60
2018,06,20,12,19,20.60
2018,06,20,12,20,20.70
2018,06,20,12,21,20.70
2018,06,20,12,22,20.70
2018,06,20,12,23,20.70
2018,06,20,12,24,20.70
2018,06,20,12,25,20.80
2018,06,20,12,26,20.80
2018,06,20,12,27,20.90
2018,06,20,12,28,21.00
2018,06,20,12,29,21.00
2018,06,20,12,30,21.10
2018,06,20,12,31,21.20
2018,06,20,12,32,21.30
2018,06,20,12,33,21.30
2018,06,20,12,34,21.40
2018,06,20,12,35,21.50
2018,06,20,12,36,21.60
2018,06,20,12,37,21.70
2018,06,20,12,38,21.80
2018,06,20,12,39,21.90
2018,06,20,12,40,22.10
2018,06,20,12,41,22.20
2018,06,20,12,42,22.50
2018,06,20,12,43,22.70
2018,06,20,12,44,22.90
2018,06,20,12,45,23.10
2018,06,20,12,46,23.30
2018,06,20,12,47,23.50
2018,06,20,12,48,23.70
2018,06,20,12,49,23.80
2018,06,20,12,50,24.00
2018,06,20,12,51,24.00
2018,06,20,12,52,24.10
2018,06,20,12,53,24.20
2018,06,20,12,54,24.30
2018,06,20,12,55,24.30
2018,06,20,12,56,24.30
2018,06,20,12,57,24.30
2018,06,20,12,58,24.20
2018,06,20,12,59,24.10
2018,06,20,13,00,23.90
2018,06,20,13,01,23.80
2018,06,20,13,02,23.70
2018,06,20,13,03,23.60
2018,06,20,13,04,23.60
2018,06,20,13,05,23.60
2018,06,20,13,06,23.70
2018,06,20,13,07,23.80
2018,06,20,13,08,23.90
2018,06,20,13,09,24.00
2018,06,20,13,10,24.10
2018,06,20,13,11,24.10
2018,06,20,13,12,24.10
2018,06,20,13,13,24.10
2018,06,20,13,14,24.10
2018,06,20,13,15,24.00
2018,06,20,13,16,24.00
2018,06,20,13,17,24.00
2018,06,20,13,18,24.00
2018,06,20,13,19,24.00
2018,06,20,13,20,24.00
2018,06,20,13,21,24.10
2018,06,20,13,22,24.20
2018,06,20,13,23,24.30
2018,06,20,13,24,24.40
2018,06,20,13,25,24.50
2018,06,20,13,26,24.70
2018,06,20,13,27,24.80
2018,06,20,13,28,24.90
2018,06,20,13,29,25.10
2018,06,20,13,30,25.10
2018,06,20,13,31,25.20
2018,06,20,13,32,25.20
2018,06,20,13,33,25.30
2018,06,20,13,34,25.40
2018,06,20,13,35,25.40
2018,06,20,13,36,25.50
2018,06,20,13,37,25.60
2018,06,20,13,38,25.70
2018,06,20,13,39,25.70
2018,06,20,13,40,25.70
2018,06,20,13,41,25.70
2018,06,20,13,42,25.70
2018,06,20,13,43,25.70
2018,06,20,13,44,25.70
2018,06,20,13,45,25.70
2018,06,20,13,46,25.80
2018,06,20,13,47,25.90
2018,06,20,13,48,26.00
2018,06,20,13,49,26.10
2018,06,20,13,50,26.10
2018,06,20,13,51,26.20
2018,06,20,13,52,26.10
2018,06,20,13,53,26.00
2018,06,20,13,54,25.90
2018,06,20,13,55,25.90
2018,06,20,13,56,25.90
2018,06,20,13,57,26.00
2018,06,20,13,58,26.10
2018,06,20,13,59,26.20
2018,06,20,14,00,26.30
2018,06,20,14,01,26.30
2018,06,20,14,02,26.20
2018,06,20,14,03,26.30
2018,06,20,14,04,26.30
2018,06,20,14,05,26.40
2018,06,20,14,06,26.50
2018,06,20,14,07,26.60
2018,06,20,14,08,26.80
2018,06,20,14,09,26.90
2018,06,20,14,10,27.00
2018,06,20,14,11,27.20
2018,06,20,14,12,27.20
2018,06,20,14,13,27.20
2018,06,20,14,14,27.30
2018,06,20,14,15,27.40
2018,06,20,14,16,27.50
2018,06,20,14,17,27.60
2018,06,20,14,18,27.70
2018,06,20,14,19,27.80
2018,06,20,14,20,27.90
2018,06,20,14,21,28.00
2018,06,20,14,22,28.10
2018,06,20,14,23,28.20
2018,06,20,14,24,28.40
2018,06,20,14,25,28.60
2018,06,20,14,26,28.70
2018,06,20,14,27,28.90
2018,06,20,14,28,28.90
2018,06,20,14,29,29.00
2018,06,20,14,30,29.00
2018,06,20,14,31,29.10
2018,06,20,14,32,29.00
2018,06,20,14,33,28.90
2018,06,20,14,34,28.80
2018,06,20,14,35,28.70
2018,06,20,14,36,28.40
2018,06,20,14,37,28.20
2018,06,20,14,38,28.00
2018,06,20,14,39,27.90
2018,06,20,14,40,27.70
2018,06,20,14,41,27.60
2018,06,20,14,42,27.40
2018,06,20,14,43,27.20
2018,06,20,14,44,27.00
2018,06,20,14,45,26.80
2018,06,20,14,46,26.80
2018,06,20,14,47,26.70
2018,06,20,14,48,26.60
2018,06,20,14,49,26.50
2018,06,20,14,50,26.50
2018,06,20,14,51,26.60
2018,06,20,14,52,26.70
2018,06,20,14,53,26.90
2018,06,20,14,54,27.10
2018,06,20,14,55,27.30
2018,06,20,14,56,27.50
2018,06,20,14,57,27.70
2018,06,20,14,58,27.90
2018,06,20,14,59,28.00
2018,06,20,15,00,28.00
2018,06,20,15,01,28.00
2018,06,20,15,02,27.90
2018,06,20,15,03,27.90
2018,06,20,15,04,27.80
2018,06,20,15,05,27.60
2018,06,20,15,06,27.60
2018,06,20,15,07,27.50
2018,06,20,15,08,27.50
2018,06,20,15,09,27.50
2018,06,20,15,10,27.50
2018,06,20,15,11,27.40
2018,06,20,15,12,27.40
2018,06,20,15,13,27.30
2018,06,20,15,14,27.20
2018,06,20,15,15,27.10
2018,06,20,15,16,27.10
2018,06,20,15,17,27.00
2018,06,20,15,18,26.90
2018,06,20,15,19,26.80
2018,06,20,15,20,26.60
2018,06,20,15,21,26.50
2018,06,20,15,22,26.40
2018,06,20,15,23,26.40
2018,06,20,15,24,26.30
2018,06,20,15,25,26.30
2018,06,20,15,26,26.30
2018,06,20,15,27,26.30
2018,06,20,15,28,26.20
2018,06,20,15,29,26.20
2018,06,20,15,30,26.30
2018,06,20,15,31,26.30
2018,06,20,15,32,26.30
2018,06,20,15,33,26.20
2018,06,20,15,34,26.20
2018,06,20,15,35,26.20
2018,06,20,15,36,26.20
2018,06,20,15,37,26.10
2018,06,20,15,38,26.10
2018,06,20,15,39,26.10
2018,06,20,15,40,26.10
2018,06,20,15,41,26.10
2018,06,20,15,42,26.10
2018,06,20,15,43,26.00
2018,06,20,15,44,26.00
2018,06,20,15,45,25.90
2018,06,20,15,46,25.80
2018,06,20,15,47,25.70
2018,06,20,15,48,25.60
2018,06,20,15,49,25.40
2018,06,20,15,50,25.30
2018,06,20,15,51,25.20
2018,06,20,15,52,25.20
2018,06,20,15,53,25.20
2018,06,20,15,54,25.20
2018,06,20,15,55,25.20
2018,06,20,15,56,25.20
2018,06,20,15,57,25.20
2018,06,20,15,58,25.10
2018,06,20,15,59,25.10
2018,06,20,16,00,25.00
2018,06,20,16,01,24.90
2018,06,20,16,02,24.80
2018,06,20,16,03,24.70
2018,06,20,16,04,24.50
2018,06,20,16,05,24.20
2018,06,20,16,06,24.00
2018,06,20,16,07,23.90
2018,06,20,16,08,23.90
2018,06,20,16,09,23.90
2018,06,20,16,10,23.80
2018,06,20,16,11,23.70
2018,06,20,16,12,23.60
2018,06,20,16,13,23.50
2018,06,20,16,14,23.40
2018,06,20,16,15,23.30
2018,06,20,16,16,23.30
2018,06,20,16,17,23.30
2018,06,20,16,18,23.40
2018,06,20,16,19,23.40
2018,06,20,16,20,23.50
2018,06,20,16,21,23.60
2018,06,20,16,22,23.60
2018,06,20,16,23,23.60
2018,06,20,16,24,23.50
2018,06,20,16,25,23.40
2018,06,20,16,26,23.20
2018,06,20,16,27,23.20
2018,06,20,16,28,23.10
2018,06,20,16,29,23.10
2018,06,20,16,30,23.10
2018,06,20,16,31,23.10
2018,06,20,16,32,23.10
2018,06,20,16,33,23.10
2018,06,20,16,34,23.10
2018,06,20,16,35,23.10
2018,06,20,16,36,23.00
2018,06,20,16,37,23.00
2018,06,20,16,38,22.90
2018,06,20,16,39,22.90
2018,06,20,16,40,22.90
2018,06,20,16,41,22.90
2018,06,20,16,42,22.90
2018,06,20,16,43,22.90
2018,06,20,16,44,22.80
2018,06,20,16,45,22.80
2018,06,20,16,46,22.70
2018,06,20,16,47,22.60
2018,06,20,16,48,22.60
2018,06,20,16,49,22.60
2018,06,20,16,50,22.60
2018,06,20,16,51,22.60
2018,06,20,16,52,22.70
2018,06,20,16,53,22.70
2018,06,20,16,54,22.70
2018,06,20,16,55,22.70
2018,06,20,16,56,22.70
2018,06,20,16,57,22.70
2018,06,20,16,58,22.80
2018,06,20,16,59,22.80
2018,06,20,17,00,22.80
2018,06,20,17,01,22.90
2018,06,20,17,02,22.90
2018,06,20,17,03,22.80
2018,06,20,17,04,22.80
2018,06,20,17,05,22.80
2018,06,20,17,06,22.80
2018,06,20,17,07,22.80
2018,06,20,17,08,22.80
2018,06,20,17,09,22.80
2018,06,20,17,10,22.80
2018,06,20,17,11,22.90
2018,06,20,17,12,22.80
2018,06,20,17,13,22.80
2018,06,20,17,14,22.80
2018,06,20,17,15,22.80
2018,06,20,17,16,22.80
2018,06,20,17,17,22.80
2018,06,20,17,18,22.80
2018,06,20,17,19,22.90